CAPE
504 279 314 217 258 461 425 250 647 682 435 310 464 366 37 487 678 1156 1086 878 1549 890 697 328 329 65 1030 466 686 802 948 668 478 364 325 815 1089 1308 1595 914 1084 1660 1510 1334 1258 1306 2208 2364 2596 2658 3165 3158 3205 3341 3470 3441 3520 3590 3533 3438 3416 3412 3494 3298 3172 3120 3084 3131 3056 3109 3013 2949 2973 2904 2873 2816 2797 2525 2615 2571 2692 2646 2659 2843 2978 2854 2650 2643 2558 2440 2593 2476 2344 2426 2314 2296 2263
430 432 358 311 632 657 702 611 570 852 599 504 130 615 710 422 1011 751 1011 1101 1162 754 334 334 111 320 108 108 142 198 324 440 596 665 676 782 972 1291 1541 1403 1409 1518 1512 1485 1364 1618 1710 2218 2414 2690 3168 3112 3174 3244 3464 3494 3378 3530 3484 3453 3538 3491 3479 3284 3209 3160 3151 3172 3204 3231 3092 3048 2880 2836 2771 2845 2740 2782 2523 2512 2570 2671 2810 2716 2654 2634 2604 2608 2629 2794 2766 2605 2640 2366 2126 2050 2286
603 656 893 954 1023 794 1254 1325 709 584 956 368 345 288 576 686 587 780 1019 1108 800 630 188 67 140 372 118 325 582 1140 147 425 411 222 511 935 833 1246 1437 1628 1663 1518 1592 1520 1533 1667 1886 2014 2175 2899 2989 3138 3113 3265 3354 3488 3499 3555 3600 3458 3632 3508 3317 3238 3284 3253 3314 3283 3374 3282 3181 2950 2832 2830 2872 2586 2626 2521 2320 2499 2633 2323 2442 2541 2475 2559 2614 2639 2738 2663 2546 2472 2576 2499 2472 2600 2248
796 1055 1252 1210 1414 1013 1026 784 732 370 4 290 18 285 445 445 668 770 874 930 779 301 336 189 487 313 523 733 414 174 216 232 415 254 564 668 854 1050 1192 1501 1716 1180 1588 1750 1804 1868 2190 1899 2162 2763 3029 3099 3086 3131 3407 3492 3556 3608 3568 3455 3339 3279 3410 3307 3298 3230 3293 3325 3479 3416 3200 3119 3025 2856 2791 2877 2868 2756 2788 2780 2680 2692 2886 2600 2555 2428 2474 2584 2611 2665 2696 2549 2551 2315 1929 2306 1988
950 1344 1112 1509 1160 1508 888 730 536 593 234 216 109 231 419 544 708 755 824 907 584 551 426 280 510 624 678 903 753 878 502 221 464 582 605 820 822 964 1228 1512 1611 1329 1234 1646 1662 1804 2206 1860 1971 2521 3223 3111 3164 3291 3444 3460 3554 3396 3283 3338 3400 3318 3331 3284 3217 3357 3288 3502 3471 3273 3140 3149 3132 3080 2923 2880 2583 2490 2400 2356 2446 2382 2460 2570 2646 2623 2450 2493 2476 2482 2596 2613 2365 2312 2199 2111 1901
994 1045 1556 1865 1548 886 686 1012 1289 492 77 469 237 136 339 642 754 746 956 1012 789 621 342 441 436 494 1087 782 929 667 303 645 472 558 971 890 763 900 1159 1350 1346 1273 1432 1497 1510 1656 2223 2120 2348 2606 3070 3063 3298 3291 3352 3555 3529 3433 3426 3488 3378 3278 3245 3282 3345 3340 3400 3484 3451 3277 3290 3192 3030 2921 2707 2543 2556 2436 2461 2516 2518 2514 2398 2409 2429 2515 2569 2386 2620 2418 2486 2064 2122 2218 2403 2222 1987
1349 1334 1258 1808 1565 1039 849 780 347 412 78 419 378 444 514 638 764 935 1001 1053 786 843 653 706 532 413 871 586 528 592 552 404 687 638 390 790 774 937 1066 1156 1198 1031 1352 1512 1424 1880 2215 2344 2681 2722 2776 2806 2936 3213 3452 3582 3450 3456 3535 3479 3370 3355 3440 3324 3367 3382 3438 3411 3378 3286 3314 3049 2820 2565 2479 2553 2603 2580 2540 2522 2496 2426 2456 2398 2338 2297 2328 2408 2459 2499 2437 2365 2310 2176 2199 2396 2018
1031 1337 1559 1232 574 841 937 234 363 520 148 627 254 464 639 554 884 1139 992 770 934 1140 759 770 425 715 975 675 1252 902 517 541 724 692 816 769 737 890 1102 1041 1057 974 1091 1339 1407 1645 2466 2698 2764 2743 2663 2714 3075 3406 3537 3503 3496 3583 3557 3522 3436 3499 3438 3520 3414 3486 3445 3344 3332 3282 3065 2744 2622 2420 2364 2434 2498 2597 2674 2744 2854 2942 2865 2651 2421 2297 2320 2460 2485 2304 2384 2292 2515 2469 2488 2288 2227
1506 1791 1340 1249 1114 684 992 335 92 88 148 267 254 408 458 672 872 970 928 768 544 974 980 808 375 735 600 1216 926 994 738 694 492 750 760 731 599 914 1036 1050 1056 1258 1000 970 1501 1625 2192 2408 2500 2603 2449 2728 3253 3367 3399 3522 3559 3764 3696 3686 3578 3536 3513 3564 3446 3428 3384 3388 3304 3092 2916 2620 2545 2595 2660 2656 2607 2549 2546 2694 2855 2871 2672 2596 2695 2514 2419 2450 2497 2454 2471 2342 2411 2480 2602 2374 2486
1050 1376 1576 1008 507 1104 232 107 240 94 242 188 428 321 487 504 742 922 676 630 801 787 991 1002 535 808 871 1236 664 910 677 416 510 800 821 743 787 939 1054 1132 1303 1408 1440 1589 1676 1420 1726 2422 2349 2322 2897 2990 3223 3322 3527 3562 3696 3828 3856 3709 3612 3564 3584 3616 3506 3460 3414 3305 3276 3028 2791 2651 2496 2713 2762 2724 2730 2569 2389 2588 2601 2669 2518 2507 2710 2664 2548 2517 2608 2610 2634 2619 2478 2338 2546 2547 2454
874 1040 1010 1182 1157 513 76 41 48 132 93 147 303 327 474 511 638 772 770 764 538 870 750 840 749 1092 1209 1022 1026 752 415 373 682 715 835 885 734 692 975 1288 1426 1462 1557 1669 1501 1590 1992 2262 2291 2347 2866 3059 3202 3294 3553 3645 3708 3730 3784 3808 3615 3625 3603 3615 3520 3488 3434 3353 3234 3000 2749 2589 2631 2874 2950 2918 2698 2614 2437 2687 2556 2672 2534 2610 2728 2717 2641 2495 2547 2562 2525 2584 2541 2494 2789 2630 2625
1300 1133 1356 1318 918 510 239 178 60 60 83 180 318 419 444 546 323 648 560 498 613 762 778 646 1097 1038 1216 1201 1035 570 579 369 488 564 827 786 612 466 1078 1376 1468 1438 1568 1645 1610 1818 1949 2342 2312 2684 2788 2937 3130 3260 3485 3522 3662 3618 3654 3696 3566 3476 3508 3542 3574 3654 3457 3376 3245 3088 2766 2717 2820 2851 2795 2680 2694 2441 2350 2666 2527 2658 2591 2618 2785 2851 2709 2658 2443 2577 2551 2683 2435 2626 2559 2498 2728
1085 1155 1236 822 1352 771 520 235 100 22 41 147 262 440 440 548 709 584 588 558 506 550 827 508 896 875 1324 1142 864 700 375 397 528 424 591 620 730 623 939 1449 1537 1494 1605 1713 1719 1882 2028 1756 1900 2124 2520 2717 2797 3017 3347 3383 3475 3435 3546 3572 3524 3572 3556 3385 3442 3442 3443 3265 3267 3081 2957 2993 2972 2902 2625 2516 2545 2436 2238 2257 2520 2627 2846 2845 2846 2900 2765 2740 2660 2751 2883 2646 2496 2617 2592 2570 2757
946 1439 1354 1458 715 634 507 216 72 54 0 34 221 356 498 636 685 694 630 681 545 795 752 845 902 1089 1268 992 894 592 478 596 518 542 515 704 762 714 832 1163 1476 1515 1698 1786 1832 1998 2221 1800 1448 1690 2435 2495 2450 3054 3264 3306 3407 3421 3460 3425 3475 3487 3454 3257 3338 3281 3291 3168 3157 3183 2989 2976 2840 2759 2602 2395 2391 2378 2446 2636 2590 2604 2868 2732 2748 2829 2818 2764 2738 2714 2940 2736 2447 2264 2518 2682 2427
1108 1404 1474 1301 810 421 214 359 27 26 3 50 204 397 466 548 378 387 676 730 782 777 666 642 1032 955 1289 1086 1037 744 566 534 660 625 544 868 886 982 918 1126 1528 1653 1696 1628 1814 2008 2282 2231 1648 1958 1790 1787 2107 1950 2295 3183 3249 3315 3340 3394 3373 3439 3621 3575 3262 3086 3143 3084 3150 3072 2956 2876 2752 2640 2644 2624 2382 2323 2420 2852 2965 2776 2738 2575 2744 2673 2845 2886 2658 2649 2871 2780 2827 2903 3086 2775 2569
1210 1147 1364 1195 1326 437 231 172 28 22 64 122 321 362 449 572 632 603 563 756 981 753 576 849 689 610 1122 991 993 574 459 550 744 816 994 1116 1172 1097 934 1034 1596 1741 1723 1756 1836 2060 2101 2424 2348 2322 1752 1813 1776 1676 2370 2667 3275 3266 3354 3324 3213 3316 3568 3635 3438 3233 2863 3073 3011 2966 2771 2632 2682 2417 2596 2544 2666 2640 2338 2656 2851 2645 2669 2540 2619 2644 2722 2746 2646 2424 2461 2578 2565 2670 2722 2628 2928
1392 1419 1573 1188 1097 464 54 237 21 23 30 205 370 496 441 545 630 838 701 922 707 703 521 689 607 612 736 987 868 532 652 476 1079 976 1057 1221 1258 1206 1122 1086 1458 1760 1734 1787 1980 2158 2231 2529 2617 2543 2744 2573 1555 1718 2186 2400 2752 3275 3300 3176 3230 3250 3350 3419 3291 3260 3226 3230 3131 2986 2578 2640 2237 2312 2729 2793 2140 2942 2583 2421 2612 2839 2501 2710 2718 2747 2894 2733 2696 2630 2517 2555 2718 2531 2692 2618 2933
1522 1041 976 916 932 490 223 242 197 106 153 198 274 435 438 595 691 1154 886 887 880 593 773 672 759 736 890 1044 638 555 527 640 798 828 1146 1252 1243 1221 1193 1179 1378 1459 1620 1650 2039 2173 2144 2546 2840 3036 3038 2927 2217 2278 2163 2147 2716 2788 2439 2914 3031 3320 3271 3325 3267 2780 2760 2714 2676 2644 2971 2680 2408 2558 2861 2072 2879 2569 2662 2211 2711 2662 2689 2672 2747 2906 3062 2845 2471 2541 2771 2973 3100 3210 3103 2910 2818
1234 1076 918 1284 632 520 421 276 362 504 218 222 362 332 415 512 653 1048 929 991 1062 849 956 854 868 1231 1252 851 708 610 535 566 612 758 905 1244 1249 1113 1152 1267 1416 1478 1438 1670 2154 2174 2311 2484 2728 2618 2451 2796 2444 2298 2278 2234 2664 2414 2324 2357 2349 2528 2601 2443 2580 2512 2574 2986 2760 2890 2954 2540 2034 2201 2570 2903 2872 1584 2420 2658 2683 2784 2781 2940 3036 3063 3219 3166 3040 3140 3215 3208 3272 2452 2965 2708 2226
1180 1142 951 850 626 519 431 399 497 317 151 156 228 520 408 562 591 887 666 1116 1107 1004 1244 1012 1132 1277 1192 1099 854 724 819 616 598 981 976 1123 1166 1183 1024 1004 1290 1467 1515 1481 1620 2319 2256 2381 2507 2322 2649 2536 2450 2278 2392 2385 2648 2354 1998 2208 2082 2230 2539 2441 2652 2683 2831 3040 3252 3008 2842 2576 2069 2223 2131 2320 2188 3178 2485 2317 2572 2918 2968 3020 2803 3030 2738 2280 2598 2520 1970 2527 2708 2403 2570 2405 2398
1211 974 774 1251 771 502 432 433 475 214 294 284 300 492 507 674 810 938 681 988 958 934 1027 1059 1235 1263 1334 1165 1000 878 759 656 653 707 908 1095 958 1021 740 753 1212 1443 1556 1528 1548 2380 2438 2464 2424 2380 2408 2521 2267 2198 2052 2011 2414 1936 1895 1878 2042 1953 2086 2454 2685 2950 2947 3151 2948 2992 2745 2274 1818 2134 2024 2466 2914 2773 2922 2639 2516 2790 3000 3135 2283 2236 2219 1958 2465 2897 2830 2364 2682 2020 2480 2237 2301
1269 908 907 1040 516 782 294 539 496 233 479 378 332 472 670 808 860 873 587 555 215 366 732 1068 1054 1336 1435 1274 1094 987 817 927 662 902 1022 1122 1019 1095 954 982 939 1348 1564 1539 1540 1754 2381 2513 2283 2271 2048 2293 2262 2094 2023 1715 1938 1926 2011 1922 1902 1938 2239 2602 2823 2874 2933 2872 2644 2605 2587 2213 1970 1848 1866 2186 2402 2592 2754 2438 2305 2419 2833 2807 2342 2376 2345 2350 2518 2294 2276 2512 2482 2230 2237 2537 2128
839 1130 1045 1146 1230 1285 1158 1006 711 610 646 457 316 405 398 677 818 866 709 525 290 598 410 1021 1043 1466 1372 1285 1104 1024 1009 860 836 765 643 917 1026 1004 662 922 876 1386 1548 1658 1600 1749 1795 2001 2086 2244 2205 2357 2058 2082 1940 1914 1894 1883 2180 2009 1815 2039 2356 2715 2831 2615 2701 2559 2487 2580 2394 2249 1846 1850 1856 2137 2348 2360 2284 2456 2357 2690 2784 2884 2627 2755 2669 2622 2415 2145 2163 2342 2548 2220 2208 2918 2429
629 426 741 899 1017 999 884 924 949 813 520 492 420 297 346 552 526 715 773 702 470 874 642 975 1382 1494 1356 1306 1258 1171 1108 1065 1003 806 677 726 778 941 787 1009 1014 1276 1656 1742 1689 1603 1723 1794 2007 1937 1866 2064 2049 1969 1876 1945 1880 1762 1847 1990 1738 2098 2300 2498 2512 2512 2658 2404 2569 2676 2518 2330 1968 1850 1996 2244 2226 2366 2466 2421 2458 2676 2403 2546 2717 2664 2692 2712 2566 2394 2213 2206 2299 2329 1812 1877 1649
824 467 362 711 792 710 598 476 364 396 507 595 509 394 261 345 413 443 669 582 595 842 945 1390 1693 1549 1374 1423 1314 1277 1189 1170 1042 830 891 613 610 788 676 751 992 1156 1371 1648 1723 1702 1695 1727 1892 1824 1967 1928 2046 1860 1929 1943 1964 1808 1904 2062 1920 1948 2233 2368 2341 2374 2559 2547 2530 2543 2472 2290 2049 2019 2136 2155 2368 2498 2677 2575 2638 2627 2625 2721 2658 2704 2749 2828 2835 2514 2236 2208 2291 2180 1882 1561 1684
493 490 557 684 576 357 382 473 544 513 491 484 445 305 179 244 343 338 535 728 709 865 1425 1705 1644 1581 1393 1452 1380 1326 1348 1290 1254 1194 811 676 583 783 634 708 754 1158 1170 1330 1714 1755 1752 1674 1690 1808 1855 2040 1928 1791 1797 1899 1902 1814 1909 2020 2034 1910 2136 2070 2430 2304 2316 2338 2396 2485 2304 2256 2106 2108 2098 2311 2308 2596 2754 2814 2639 2555 2695 2633 2468 2747 2936 2906 2770 2617 2508 2401 2338 2587 2268 2078 1831
522 507 355 363 315 395 501 512 435 397 406 517 456 237 121 154 256 501 503 638 976 1260 1670 1804 1653 1645 1503 1451 1392 1442 1415 1374 1398 1338 1133 799 761 724 647 695 964 1127 1190 1032 1312 1495 1655 1667 1698 1773 1804 1848 1924 1796 1840 1909 1871 1928 1890 2040 2109 2132 1981 2201 2257 2148 2064 2152 2234 2325 2510 2402 2279 2118 2304 2460 2419 2580 2774 2741 2654 2658 2369 2542 2554 2670 2933 2864 2650 2635 2683 2585 2517 2725 2789 2530 2543
202 346 337 267 226 228 168 68 38 42 110 158 251 152 25 31 271 388 558 847 1208 1324 1731 1841 1722 1750 1633 1534 1467 1596 1579 1534 1537 1414 1236 1106 759 866 780 649 704 687 783 1135 979 1245 1378 1681 1806 1709 1826 1958 1869 1860 1847 1758 1813 1910 1939 1916 1908 2060 2271 2036 2038 2048 2135 2159 2240 2272 2392 2241 2155 2371 2557 2625 2560 2712 2687 2706 2796 2828 2475 2661 2906 2895 3027 2878 3014 2995 3173 2978 2926 2568 2489 2400 2441
114 56 26 4 2 2 0 3 9 11 11 11 26 13 3 20 326 435 496 1176 1227 1225 1694 1800 1770 1794 1756 1685 1603 1780 1718 1722 1612 1488 1365 1287 1204 842 743 638 692 961 764 979 1165 1230 947 1247 1603 1760 1835 1839 2036 1908 1758 1917 1885 1814 1836 1810 1836 1848 2156 1968 1976 1963 2141 2041 2435 2334 2321 2404 2455 2371 2557 2435 2428 2439 2828 3173 2958 2831 2684 2824 3012 3432 3135 3132 2920 2718 2830 2891 2952 2732 2506 2450 2357
0 0 0 0 0 0 0 0 0 0 1 2 2 6 28 74 269 548 519 1314 1208 1183 1652 1747 1791 1882 1871 1838 1766 1925 1882 1802 1712 1616 1518 1394 1396 1313 896 770 842 955 1070 1044 904 1110 869 1030 1159 1589 1724 1798 1986 1824 1642 1846 1921 1815 1806 1859 1814 1923 2022 1976 2049 1975 2072 1963 2274 2613 2368 2587 2567 2543 2625 2798 2518 2384 2871 3222 3215 3032 2998 3208 3274 3582 3166 2758 2385 2812 2342 2330 2348 2351 2253 2480 1828
0 0 0 0 0 0 0 0 0 0 0 0 0 0 0 17 358 330 766 1101 1101 1200 1566 1691 1740 1897 1988 1918 1905 2057 1904 1952 1816 1796 1599 1480 1532 1516 1446 1253 1258 1232 1410 1246 1092 1163 1166 848 1118 1170 1512 1899 1922 1772 1716 1794 1778 1874 1830 1908 1970 2009 1870 1857 1810 1810 2026 2128 2117 2254 2547 2500 2668 2853 2821 2620 2440 2380 2593 2838 3152 2962 3182 3246 2917 3406 3099 2820 2690 2693 2602 2542 2622 2442 2160 2138 1833
0 0 0 0 0 0 0 0 0 0 0 0 0 0 0 0 42 232 809 970 942 1052 1429 1676 1754 1921 1994 1960 1905 1953 1892 1981 1903 1821 1718 1639 1684 1672 1652 1580 1459 1422 1620 1446 1288 1270 1174 1266 1271 1190 1415 1353 1830 1868 1745 1654 1633 1631 1609 1672 1783 1921 1746 1871 1890 1869 1775 1905 1982 2046 2567 2640 2763 2856 2828 2586 2324 2222 2342 2509 2880 3451 3794 3190 3206 3406 3147 2854 3037 2952 2988 2832 2729 1901 1392 1517 1361
0 0 0 0 0 0 0 0 0 0 0 8 8 0 0 0 6 229 688 753 900 986 1253 1626 1772 1941 2020 2032 1963 1941 1849 1872 1843 1868 1826 1744 1843 1833 1775 1774 1628 1612 1818 1792 1627 1522 1416 1369 1422 1259 1160 1410 1668 1616 1666 1653 1775 1630 1696 1430 1620 1711 1609 1632 1746 1758 1754 1672 1891 1880 2774 2770 2742 2734 2656 2626 2470 2102 2322 2678 2964 3120 3794 3101 3330 3467 3139 2812 3031 2747 3160 2922 2794 2256 1364 1273 996
0 0 0 0 0 0 0 0 0 0 0 9 20 2 0 3 0 162 504 473 819 923 1138 1524 1806 1952 2069 2043 1884 1992 1955 2016 1955 1938 1875 1901 1888 1985 1902 1912 1811 1781 2038 2066 1926 1835 1757 1662 1568 1493 1224 1004 1517 1682 1642 1659 1742 1724 1752 1486 1489 1534 1500 1386 1558 1702 1555 1666 1959 2064 2454 2903 2769 2674 2707 2750 2698 2048 2414 2881 2756 3339 3444 3298 3298 3197 3154 2766 3060 3147 2823 3237 2164 2007 1328 1141 817
0 0 0 0 0 0 0 0 0 0 0 0 18 13 0 0 10 23 264 344 584 763 931 1424 1720 1886 2018 1991 1888 1944 1983 2047 2011 1940 1898 1998 2052 2101 2024 2032 1912 1857 2000 2116 2103 2198 2080 2016 1867 1794 1638 1334 1458 1514 1618 1782 1637 1848 1627 1586 1380 1586 1632 1655 1683 1758 1844 1676 1537 1897 2441 2676 2524 2708 2793 2888 2801 2287 2246 2955 3258 3850 3491 3476 3406 3258 3032 3000 2884 2550 2059 3123 3040 2087 1410 1214 870
0 0 0 0 0 0 0 0 0 0 0 0 0 7 4 2 0 41 178 259 448 587 730 1205 1591 1774 1997 1991 1836 1840 2020 1952 2003 1969 1922 2028 2164 2132 2050 2119 2078 1947 1880 2015 2251 2239 2302 2247 2153 2124 2068 1752 1824 1828 1642 1604 1497 1518 1457 1424 1244 1380 1466 1623 1789 1881 1806 1582 1502 1965 2595 2764 2478 2667 2878 2899 2994 2598 2912 3189 3380 3879 3488 3431 3526 3199 2974 2860 3153 2892 3403 2552 3214 2076 1245 1042 505
0 0 0 0 0 0 0 0 0 0 0 0 0 0 0 0 0 17 177 142 273 349 605 1138 1545 1818 1918 1887 1832 1875 2102 1950 1938 1906 1847 2086 2106 2278 2070 2093 2083 2031 1988 2030 2148 2248 2414 2414 2250 2234 2343 2222 2090 1778 1600 1330 1193 1332 1343 1254 1234 1296 1490 1783 1946 2023 1829 1606 1632 2077 2640 2751 2627 2805 2873 3183 3208 3501 3638 3615 3742 3917 3431 3673 3494 3362 3220 3118 2744 2275 2067 2370 1768 1346 1163 927 170
0 0 0 0 0 0 0 0 0 0 0 0 0 0 0 0 0 2 5 97 156 190 383 822 1364 1724 1958 2034 1910 1930 2056 1994 1920 1964 1874 1969 2115 2148 2193 2135 2106 2152 2156 2093 2158 2346 2466 2329 2467 2534 2316 2230 2149 1945 1742 1496 1495 1481 1484 1515 1503 1634 1868 1991 2226 2204 1766 1534 2067 2624 2804 2456 2575 2978 3003 3498 4001 4437 3921 3634 4086 4162 4144 3513 3834 3782 3709 3309 2452 2134 1838 1890 1935 1380 1192 593 145
0 0 0 0 0 0 0 0 0 0 0 0 0 0 0 0 0 0 0 20 220 161 170 436 1129 1599 1949 2027 2001 2056 2102 2086 2099 2134 2074 2063 2057 2232 2277 2288 2294 2216 2289 2195 2231 2281 2361 2273 2274 2568 2445 2288 2258 2333 2221 2049 1938 1844 1785 1786 1802 1708 1908 2018 1849 1843 1995 1764 2247 3064 3055 2702 2744 2916 3193 3532 4092 4240 3822 3927 3999 4059 4224 3566 3958 3869 3967 3438 2826 2150 2190 1854 1611 1518 1101 844 394
0 0 0 0 0 0 0 0 0 0 0 0 0 0 0 0 0 0 0 0 221 166 152 322 824 1473 1765 1990 2035 2104 2184 2304 2249 2284 2061 1987 2187 2383 2494 2443 2397 2376 2364 2366 2258 2226 2294 2287 2312 2411 2657 2774 2774 2646 2402 2268 2257 2362 2287 2061 1952 1572 1730 2106 2072 2122 2466 2104 2038 2890 3121 2778 2920 2625 2862 3484 3742 3922 4205 4021 3752 3610 4278 4237 3859 4048 4066 3587 2784 2322 1953 1879 1884 1312 1261 676 366
0 0 0 0 0 0 0 0 0 0 0 0 0 0 0 0 0 0 0 0 29 107 145 279 602 1145 1476 1626 1901 2163 2214 2373 2353 2371 2273 2148 2159 2216 2519 2443 2492 2286 2201 2146 2254 2263 2203 2298 2335 2445 2604 2754 2692 2715 2608 2523 2598 2690 2515 2175 2242 2109 2095 2433 2519 2438 2560 2644 2012 2401 2994 3044 2954 2612 2708 3297 3457 4167 4326 4020 3806 3795 3916 4399 3854 3900 3890 3410 2868 2134 2186 2150 2024 1452 1003 399 496
0 0 0 0 0 0 0 0 0 0 0 0 0 0 0 0 0 0 3 3 32 78 310 530 698 1024 1445 1599 1822 2031 2174 2412 2482 2432 2324 2276 2340 2362 2478 2601 2488 2406 2365 2355 2360 2460 2388 2343 2404 2446 2564 2682 2683 2844 2831 2738 2704 2726 2610 2383 2375 2406 2311 2536 2814 2548 2336 2384 1878 1668 2697 3085 2826 2730 2780 3087 3538 3795 4372 4130 4030 3986 3812 4040 4100 3643 3400 3044 2600 2279 2026 2019 1926 1782 1527 436 404
0 0 0 0 0 0 0 0 0 0 0 0 0 0 0 3 10 5 0 178 212 310 498 698 928 1166 1371 1684 1778 2017 2192 2218 2456 2406 2416 2242 2352 2464 2547 2656 2628 2454 2498 2448 2436 2398 2458 2504 2566 2597 2587 2738 2717 2800 2893 2703 2925 2804 2733 2436 2061 2138 2245 2274 2628 2428 2143 2100 2068 1818 2280 3066 2999 2826 2657 2993 3327 3591 3931 4130 4286 4266 3664 3724 3977 3904 3570 2898 2351 2336 2136 2044 1903 1913 1481 979 726
0 0 0 0 0 0 0 0 0 0 0 0 0 0 0 0 0 0 0 15 174 557 820 856 871 1363 1304 1602 1646 1930 2094 2108 2439 2495 2481 2342 2442 2463 2568 2687 2492 2418 2413 2392 2532 2544 2652 2762 2782 2818 2697 2737 2796 2836 2906 2772 2826 2804 2797 2471 2029 2029 1940 2296 2592 2622 2219 2349 2567 2234 2250 2893 3316 3071 2462 2901 3306 3358 3691 3930 4234 4196 3915 3662 3802 3940 3315 2768 2489 2516 2434 2323 2159 2040 1894 1218 748
0 0 0 0 0 0 0 0 0 0 0 0 0 0 0 0 0 0 0 0 28 196 406 923 874 1189 1454 1495 1528 1728 1951 2068 2204 2432 2465 2396 2397 2348 2457 2624 2579 2294 2296 2448 2496 2526 2721 2918 3040 3030 2995 2860 2927 2935 3088 2930 2707 2796 2780 2443 2238 1857 1887 1977 2513 2584 2451 2746 3053 2857 2581 2921 3528 3552 2815 2848 3320 3315 3416 3572 4166 4319 3993 4002 3951 3675 3139 2598 2716 2706 2794 2577 2314 2257 2002 1339 1175
0 0 0 0 0 0 0 0 0 0 0 0 0 0 0 0 0 0 0 0 0 10 72 278 952 991 1294 1310 1380 1502 1790 2030 2082 2268 2422 2394 2420 2494 2486 2578 2621 2430 2268 2387 2534 2655 2699 2880 3034 3250 3223 3190 3070 3188 3220 3135 2868 2805 2889 2696 2405 2255 2139 2099 2336 2884 2958 3382 3256 3366 3024 2985 3145 3620 3425 3094 3426 3474 3326 3512 3558 3999 4068 3303 3348 3107 2963 2740 2747 2834 2755 2590 2404 2369 2153 1535 1296
0 0 0 0 0 0 0 0 0 0 0 0 0 0 0 0 0 0 0 0 0 0 4 55 500 1051 1159 1300 1258 1387 1706 1971 2063 2168 2268 2486 2423 2384 2393 2554 2714 2594 2277 2452 2519 2523 2617 2908 3079 3258 3338 3231 3210 3342 3113 3103 3107 2856 2824 2760 2730 2575 2611 2377 2559 3062 3304 3394 3378 3249 3222 3202 3086 3089 2936 3240 3460 3435 3308 3391 3318 3496 3631 3251 3151 3218 3228 2806 2561 2735 2638 2548 2654 2487 2207 1860 1466
0 0 0 0 0 0 0 0 0 0 0 0 0 0 0 0 0 0 0 0 0 8 0 0 157 945 1258 1358 1204 1197 1472 1840 2053 2025 2113 2332 2492 2412 2418 2545 2672 2781 2522 2422 2410 2481 2702 2899 3152 3373 3418 3372 3203 3234 3053 3024 3154 2990 2943 3017 2874 2863 2924 2662 2791 2914 3323 3416 3338 3168 3126 3208 3301 3041 3322 2656 3242 3148 3334 3430 3380 3142 3426 3308 3267 3330 3152 2880 2647 2566 2621 2745 2772 2616 2402 2042 1465
0 0 0 0 0 0 0 0 0 0 0 0 0 0 0 0 0 0 0 0 0 4 4 0 8 636 1262 1298 1266 1308 1354 1628 1926 2085 2090 2250 2405 2425 2431 2573 2838 2948 2753 2586 2478 2464 2702 2962 3261 3546 3605 3402 3372 3276 3016 2970 3199 3130 3044 3068 3088 3129 3140 3182 2954 2840 3109 3352 3252 3093 3202 3325 3484 3264 3204 2900 2869 3314 3104 3728 3676 3421 3218 3328 3416 3229 3104 3194 3075 2716 2622 2587 2518 2500 2534 2162 1707
0 0 0 0 0 0 0 0 0 0 0 0 0 0 0 0 0 0 0 0 0 0 2 0 0 20 940 1262 1400 1254 1401 1542 1824 1919 2007 2194 2456 2462 2450 2567 2732 2928 2910 2739 2654 2651 2731 2870 3268 3463 3774 3641 3504 3350 3114 3096 3002 3180 3356 3244 3232 3348 3319 3352 3124 2880 2873 3144 3183 3241 2950 3042 3349 3324 3056 3261 2739 3103 3070 3714 4054 3854 3734 3634 3792 3791 3498 3266 3214 3071 2894 2792 2513 2538 2415 2094 1852
0 0 0 0 0 0 0 0 0 0 0 0 0 0 0 0 0 0 0 0 0 0 0 0 0 0 260 890 1031 1136 1430 1526 1731 1919 1944 2047 2286 2475 2448 2505 2631 2722 2870 2749 2734 2730 2919 2988 3314 3502 3792 3712 3690 3392 3138 3140 3044 3092 3288 3441 3418 3498 3546 3445 3403 2987 2900 3050 2975 3042 3110 2795 2974 3163 3066 3370 3362 3211 3550 3685 4100 3867 3653 3679 3755 3654 3441 3393 3288 3136 2912 2992 2793 2465 2440 1974 1811
0 0 0 0 0 0 0 0 0 0 0 0 0 0 0 0 0 0 0 0 0 0 0 0 0 0 0 246 786 919 1110 1376 1634 1853 1987 2054 2197 2509 2417 2462 2666 2780 2857 2682 2747 2841 3017 3085 3325 3518 3599 3770 3630 3596 3430 3292 3088 3058 3140 3235 3504 3746 3652 3469 3448 3290 3072 3128 3243 3108 3315 3219 3006 3084 3447 3459 3776 3543 3740 3793 4047 3807 3576 3468 3502 3348 3392 3187 3385 3145 3039 2912 3010 2527 2204 2182 1961
0 0 0 0 0 0 0 0 0 0 0 0 0 0 0 0 0 0 0 0 0 0 0 0 0 0 0 139 542 819 1018 1314 1564 1733 1922 2129 2115 2325 2426 2484 2390 2560 2744 2747 2858 3063 3088 3133 3226 3531 3652 3763 3596 3687 3601 3352 3047 3208 3369 3338 3435 3388 3323 3176 3294 3504 3031 3101 3294 3280 3085 3321 3138 3170 3451 3599 3961 3938 4051 3905 3742 3534 3669 3723 3667 3574 3366 3577 3599 3313 3164 3210 3015 2274 2138 2150 2020
0 0 0 0 0 0 0 0 0 0 0 0 0 0 0 0 0 0 0 0 0 0 0 0 0 0 7 166 583 861 1039 1216 1503 1811 2052 2215 2152 2246 2308 2288 2360 2418 2472 2637 2990 3070 3050 3078 3178 3509 3641 3728 3630 3744 3484 3438 3462 3544 3460 3371 3300 3442 3279 3053 3494 3587 3253 3088 3313 3374 3102 3117 3218 3089 3100 3424 3828 4239 4167 3961 3781 3665 3516 3593 3330 3338 3350 3440 3675 3504 2986 3040 2946 2532 2228 2240 2314
0 0 0 0 0 0 0 0 0 0 0 0 0 0 0 0 0 0 0 0 0 0 0 0 0 0 0 58 418 735 995 1161 1482 1774 1978 2073 2136 2177 2345 2196 2157 2257 2660 2841 2820 2876 2889 2915 2938 3066 3494 3349 3531 3452 3377 3473 3462 3336 3340 3573 3627 3504 3385 3488 3726 3484 3522 3269 3086 3252 3218 3080 3159 3184 3290 3402 3955 4128 4080 4139 3859 3923 3752 3688 3532 3206 3409 3441 3464 3241 3031 2803 2932 3002 2870 2389 2319
0 0 0 0 0 0 0 0 0 0 0 0 0 0 0 0 0 0 0 0 0 0 0 0 0 0 0 1 67 518 1044 1141 1400 1655 1805 1957 2042 2064 2148 2147 2073 2172 2408 2462 2524 2542 2548 2718 2790 2956 3158 3334 3294 3383 3490 3404 3404 3300 3258 3620 3523 3288 3443 3476 3480 3528 3377 3390 3292 3196 3249 2915 3054 3100 3248 3522 3698 3813 3908 3879 3913 3644 3228 3485 3315 3046 3202 3356 3415 3195 2996 2679 2555 3200 3058 2556 2400
0 0 0 0 0 0 0 0 0 0 0 0 0 0 0 0 0 0 0 0 0 0 0 0 0 0 0 0 1 142 988 1237 1327 1526 1698 1918 2005 1925 1938 2078 2002 1970 2185 2282 2263 2306 2264 2432 2706 2862 2956 3010 3010 2953 3117 3421 3287 3254 3361 3542 3569 3605 3428 3312 3664 3532 3499 3481 3337 3129 3106 3078 3106 3180 3230 3438 3734 3688 3641 3870 3604 3544 3351 3428 3392 3170 3228 3409 3395 3232 3103 3049 2872 2618 2687 2308 2572
0 0 0 0 0 0 0 0 0 0 0 0 0 0 0 0 0 0 0 0 0 0 0 0 0 0 0 0 0 6 542 1394 1483 1319 1482 1677 1916 1887 1878 1894 1984 1788 1890 2053 2017 2104 2118 2274 2446 2481 2421 2752 2769 2752 3014 3269 3236 3158 3279 3539 3449 3536 3538 3709 3595 3539 3398 3384 3322 3209 3262 3312 3132 3263 3388 3352 3728 3719 3542 3771 3468 3505 3557 3430 3565 3401 3226 3259 3410 3156 3030 3034 2972 2705 2716 2608 2609
Wind_Speed
9 9 7 6 5 3 5 10 10 7 12 8 5 4 nan 5 5 1 2 4 4 2 2 3 3 nan 11 8 9 8 15 13 20 18 12 7 5 6 8 10 11 9 6 5 5 6 5 3 5 9 8 7 6 6 6 6 6 6 7 7 7 6 6 5 5 4 4 4 3 3 2 2 2 1 1 2 2 2 2 2 2 1 0 2 2 2 2 1 1 1 0 1 0 1 2 2 4
7 8 8 8 5 4 7 9 10 11 9 5 6 5 3 2 7 5 2 8 7 2 4 2 4 4 6 4 6 3 13 18 15 9 7 1 6 7 9 10 11 9 5 4 4 4 5 4 4 6 5 5 5 6 7 7 7 7 7 7 7 6 6 5 4 4 4 3 3 2 1 1 1 1 2 2 2 2 2 3 2 2 1 1 1 1 1 1 2 1 1 1 1 2 3 4 3
6 6 5 6 6 11 9 9 11 9 4 3 4 5 5 1 4 5 6 6 3 2 5 nan 1 5 3 7 8 19 8 10 7 6 3 4 5 6 9 9 9 9 6 3 3 3 4 4 7 6 4 5 6 7 8 8 7 8 8 7 7 6 5 5 4 4 4 3 2 2 1 1 1 1 2 2 2 3 3 3 3 2 1 1 1 2 1 1 1 1 1 2 2 1 3 3 3
7 7 6 6 7 8 10 10 12 9 nan 10 nan 4 5 5 5 5 5 4 3 5 6 5 6 13 13 5 7 8 8 6 3 6 3 6 4 6 7 9 9 10 6 3 4 5 5 5 8 8 6 6 7 8 8 8 7 8 7 7 6 5 5 5 5 4 4 3 2 2 2 2 2 2 2 3 3 3 3 3 2 2 1 2 2 2 2 1 1 1 2 3 3 3 3 3 3
8 7 7 8 9 7 11 9 11 10 4 6 6 5 6 5 6 3 3 2 3 5 8 5 4 5 10 11 12 11 8 4 3 4 4 3 8 7 9 9 9 8 7 5 5 6 5 8 8 8 7 8 8 8 7 7 7 7 6 6 6 5 5 5 5 4 4 3 3 3 3 3 4 4 3 3 3 3 3 3 3 2 1 1 1 2 2 2 1 2 3 3 4 4 3 2 4
8 8 7 8 7 7 9 10 6 4 nan 8 6 8 8 8 5 4 2 1 2 5 5 8 5 5 5 9 10 4 4 4 5 6 8 8 13 12 11 10 9 7 6 6 5 5 6 9 9 8 6 7 8 7 7 6 6 6 6 6 6 5 5 5 5 5 5 5 4 4 4 4 4 5 5 4 3 3 3 3 3 3 2 1 1 2 2 2 2 2 3 4 5 5 3 3 6
6 6 7 8 8 7 8 7 2 5 nan 8 7 6 7 7 5 3 4 3 2 3 6 4 1 2 1 2 6 7 10 3 7 9 10 15 14 14 12 10 10 9 8 6 6 5 8 10 9 7 5 6 8 7 7 6 6 6 7 7 6 5 6 6 6 6 6 5 6 6 5 4 5 5 4 3 3 3 3 3 2 2 1 1 1 1 0 1 1 2 2 4 4 5 6 6 7
5 7 5 8 5 7 7 3 1 3 6 7 7 6 6 4 4 3 5 4 5 5 5 1 6 4 7 6 6 4 1 5 6 11 15 16 15 14 12 10 10 11 9 7 7 4 6 7 5 4 4 6 7 7 6 6 6 6 6 6 6 5 6 6 7 8 7 7 8 7 6 6 6 5 4 2 3 3 4 4 3 3 2 2 1 0 0 0 1 1 2 4 4 5 6 6 8
5 8 8 7 7 5 7 2 nan nan 4 2 5 9 5 5 2 5 4 2 6 3 6 5 4 5 2 2 5 2 2 2 10 11 17 17 17 14 10 12 11 9 11 11 8 7 7 5 3 4 6 8 8 7 7 6 6 5 5 5 5 6 7 8 9 9 8 9 9 8 8 8 7 6 4 3 3 4 4 4 4 3 3 2 1 1 1 1 1 1 2 3 4 4 5 5 6
7 8 7 9 8 7 3 2 0 nan 5 6 5 4 3 4 5 1 5 4 4 5 5 3 3 4 4 5 5 2 2 6 10 13 16 17 16 13 12 13 12 12 10 9 8 8 6 9 9 8 8 8 7 7 6 6 5 4 4 5 6 6 8 9 10 9 9 10 9 8 8 8 7 6 5 4 4 5 5 6 6 5 3 2 2 1 1 1 1 1 1 2 1 2 2 2 3
7 7 10 11 7 5 nan nan nan 4 nan 5 5 5 4 4 4 4 3 6 5 5 7 4 3 5 2 5 6 5 4 8 12 15 15 15 15 14 12 12 12 12 11 11 10 8 7 8 11 10 8 7 7 7 5 5 4 4 4 5 6 7 9 9 10 9 9 10 9 7 8 9 8 7 6 5 6 6 6 7 7 5 3 2 2 2 2 1 0 1 2 2 2 2 2 2 2
11 8 7 10 8 8 6 6 nan nan nan 4 7 5 5 5 4 5 5 4 4 7 6 6 3 4 3 3 2 3 6 10 11 13 14 14 13 14 12 10 13 12 11 11 10 8 8 7 7 7 7 7 7 6 5 4 3 3 4 5 6 8 9 10 9 9 9 9 8 7 9 9 9 7 7 6 7 8 7 7 6 5 4 4 4 5 4 4 3 4 4 4 4 4 4 5 5
10 11 10 10 9 7 8 4 nan nan nan 5 8 6 5 5 3 7 6 7 3 6 6 2 8 2 0 1 5 7 9 10 10 12 14 13 12 13 12 11 13 12 11 11 10 8 8 7 5 6 5 7 7 5 4 4 3 4 5 6 7 9 10 10 10 9 8 8 7 7 8 9 9 8 7 7 8 9 7 8 8 7 8 7 7 7 7 7 7 7 7 6 5 6 6 6 6
11 11 14 14 10 7 6 4 nan nan nan nan 9 7 4 3 3 7 6 7 5 3 9 7 3 3 6 6 4 7 8 11 11 12 11 14 12 12 14 12 13 12 10 9 8 8 7 7 5 4 4 5 4 4 4 4 4 5 6 7 8 9 10 10 10 9 8 8 8 8 9 10 9 8 8 9 9 9 9 10 10 11 10 9 9 9 9 9 9 8 8 7 7 6 6 6 6
10 11 15 15 11 7 5 4 nan nan nan nan 12 7 5 4 5 5 5 7 9 12 11 6 6 1 1 1 4 7 11 13 11 11 12 12 13 13 15 12 13 12 10 9 8 7 6 5 5 3 5 4 4 5 7 6 5 6 7 8 9 10 10 10 10 10 9 9 9 9 10 11 10 9 10 11 12 12 12 10 13 14 10 9 9 9 9 10 9 9 8 6 5 4 4 5 6
9 12 16 16 11 9 8 5 nan nan nan 8 11 9 5 7 5 5 7 9 11 8 6 7 4 8 7 4 6 9 14 15 13 12 10 12 12 13 14 14 12 11 10 9 7 6 5 4 3 3 4 5 5 6 7 7 7 8 9 9 10 10 10 10 11 11 11 11 12 11 12 13 12 11 12 12 12 13 12 15 13 15 11 10 9 8 9 9 7 7 6 5 5 5 6 6 7
10 13 15 14 11 7 nan 7 nan nan nan 10 9 6 3 5 5 10 13 8 6 8 3 10 3 9 5 7 12 13 13 14 14 14 11 11 11 11 12 12 11 11 8 9 6 5 5 4 4 3 4 5 7 7 8 9 8 9 9 10 11 11 11 11 12 12 13 14 14 14 15 18 14 13 14 12 12 13 12 10 14 16 12 9 8 7 7 7 6 5 5 4 5 7 9 10 9
9 10 15 15 15 12 14 16 15 11 12 11 7 6 4 4 4 9 7 6 7 8 6 9 9 8 10 11 14 15 14 14 14 14 12 11 10 11 11 12 12 12 10 8 6 5 5 4 4 4 4 5 7 7 10 10 9 12 11 11 12 11 11 12 13 15 15 14 16 15 17 15 15 14 13 13 12 11 9 11 9 14 10 8 7 6 5 5 4 3 4 3 4 9 10 13 10
9 12 15 17 13 18 14 17 17 14 14 12 6 6 4 5 2 6 3 5 7 6 7 7 7 10 11 12 16 17 16 14 13 12 13 13 11 13 11 10 12 11 10 7 4 6 5 4 5 5 4 6 7 9 10 11 10 12 11 12 12 12 11 13 14 14 15 15 16 16 16 15 14 13 13 14 15 12 10 9 9 11 9 6 7 5 5 3 3 3 4 7 10 6 9 11 9
9 15 15 14 17 16 14 15 16 16 13 12 8 6 5 8 3 7 5 6 6 4 7 4 6 9 10 13 15 18 16 15 13 13 13 12 12 12 11 12 11 11 9 7 4 4 5 5 5 5 6 7 8 10 11 11 11 11 12 12 12 12 12 13 14 14 14 14 15 16 16 13 13 13 11 12 15 13 9 11 11 13 11 8 10 11 8 6 7 8 7 10 15 6 5 8 7
12 12 14 17 18 12 15 13 15 16 16 13 11 9 5 6 5 4 5 6 4 5 4 3 5 9 13 14 16 17 16 15 15 13 12 12 11 9 8 9 9 8 6 5 4 4 5 5 5 6 7 7 9 10 11 12 11 12 12 12 12 13 13 13 12 13 13 14 14 15 14 12 13 13 12 12 14 11 11 11 11 11 8 7 11 8 9 6 13 8 10 8 4 8 5 5 6
16 11 13 17 17 12 18 16 15 15 14 12 10 6 7 9 5 4 5 7 9 8 4 2 3 9 13 16 17 16 17 15 17 16 15 15 15 12 9 8 9 7 5 4 5 5 5 5 6 5 6 8 9 10 11 11 10 12 12 12 12 13 12 12 12 12 11 13 13 14 13 11 13 12 12 13 12 11 12 11 10 8 8 7 9 8 6 7 8 8 8 6 6 5 6 5 6
13 11 11 12 14 15 16 15 13 12 13 12 10 11 8 4 5 4 5 5 12 16 12 4 4 8 10 14 16 16 16 16 17 17 16 16 15 13 11 8 9 7 4 4 4 4 4 5 6 5 6 8 9 10 10 11 12 13 12 12 12 12 12 12 12 11 11 11 12 12 13 12 12 12 11 11 12 11 11 11 8 8 8 7 7 7 7 7 7 7 6 7 7 6 6 7 7
10 14 13 9 10 10 11 11 11 11 12 11 10 10 5 3 6 4 5 3 8 11 11 7 8 9 11 13 15 16 16 16 16 14 14 14 14 14 11 10 8 5 3 4 4 4 4 6 6 7 6 6 7 9 10 11 12 13 12 12 13 12 12 11 11 10 9 10 11 11 13 12 11 11 11 11 11 11 10 10 7 9 6 7 6 8 7 6 6 7 6 4 5 5 5 7 5
9 11 12 13 12 12 10 10 10 10 9 9 8 8 5 5 8 7 5 4 4 10 8 11 11 10 11 12 13 14 14 13 13 12 11 10 11 9 7 4 6 4 4 4 3 4 6 4 5 6 6 6 7 8 10 12 12 14 12 12 13 11 13 12 11 10 9 9 8 10 11 11 11 11 10 10 10 9 9 9 9 7 6 6 7 5 5 6 6 7 5 6 4 5 5 5 6
9 11 14 13 11 11 11 11 10 8 8 7 7 6 6 6 7 10 7 3 3 7 10 12 11 10 10 11 12 12 14 14 13 13 12 10 10 9 6 4 5 5 5 5 4 4 4 4 5 6 6 6 7 8 10 11 12 13 13 12 12 11 12 11 9 10 9 8 8 9 10 11 11 10 9 10 9 9 9 8 8 8 6 6 6 4 4 5 5 5 4 4 3 4 5 4 6
21 12 11 12 12 14 14 13 10 7 6 5 4 5 6 5 5 6 3 2 5 6 8 11 10 9 9 9 9 10 13 15 15 11 9 9 9 7 6 5 6 5 3 6 4 3 2 4 4 5 5 6 7 8 9 11 12 12 12 12 11 11 10 10 9 10 8 8 8 7 9 10 10 10 9 9 9 9 8 8 8 6 7 5 5 5 4 3 3 3 2 2 3 2 3 4 3
21 22 17 13 12 14 16 nan nan nan 7 3 3 5 nan nan 4 7 7 4 8 8 9 11 10 9 8 10 9 8 9 11 12 12 13 12 6 5 5 4 5 4 4 5 4 4 4 5 4 4 5 6 7 8 9 11 11 11 11 11 10 10 9 9 9 9 8 9 8 7 8 8 10 10 9 9 9 8 8 7 6 7 5 6 5 3 3 3 3 3 4 3 3 3 3 4 4
19 nan nan nan nan nan nan nan nan nan nan nan nan nan nan nan 4 3 4 7 8 8 10 11 11 10 9 9 9 7 7 10 12 11 12 9 5 3 6 5 5 3 3 6 5 6 6 5 4 4 5 5 7 8 8 10 11 11 10 10 10 9 8 9 9 8 8 8 8 9 8 8 9 9 9 10 9 8 7 7 7 7 7 6 5 4 5 5 5 5 6 5 4 4 4 4 5
nan nan nan nan nan nan nan nan nan nan nan nan nan nan nan nan 3 2 2 6 7 8 9 9 9 11 10 10 9 8 8 10 12 11 10 8 4 4 6 5 6 3 2 4 6 6 4 4 5 6 5 5 7 8 9 10 10 11 10 9 9 8 8 8 9 9 9 9 8 8 8 8 9 9 9 8 8 7 7 7 7 7 6 6 6 6 6 6 3 2 2 3 3 2 2 4 5
nan nan nan nan nan nan nan nan nan nan nan nan nan nan nan nan 8 6 5 5 8 9 8 8 9 11 11 11 10 9 10 10 12 12 11 9 4 3 5 4 5 3 3 4 6 5 5 3 5 6 4 5 6 8 8 10 10 10 9 9 8 7 8 9 9 8 9 9 9 8 9 8 9 9 9 8 7 7 7 7 6 7 6 5 6 5 5 4 4 4 2 2 2 2 3 3 4
nan nan nan nan nan nan nan nan nan nan nan nan nan nan nan nan nan 10 6 2 4 6 7 8 9 10 12 12 12 10 10 10 10 10 11 9 5 2 3 5 4 2 2 4 4 4 4 3 4 5 3 4 6 7 8 9 9 9 9 8 8 7 8 8 9 10 9 9 9 9 8 8 8 8 7 7 7 7 7 6 6 6 5 6 4 4 5 5 4 5 4 5 4 3 3 4 5
nan nan nan nan nan nan nan nan nan nan nan nan nan nan nan nan nan 13 7 3 2 4 6 7 10 12 12 13 12 10 9 9 7 7 9 7 3 1 1 3 3 3 4 4 4 3 3 3 3 4 2 4 5 5 6 7 8 8 8 7 7 7 8 9 9 10 10 9 9 9 6 7 7 6 6 7 7 8 8 6 7 7 7 6 5 5 6 5 6 7 7 6 5 4 4 4 4
nan nan nan nan nan nan nan nan nan nan nan nan nan nan nan nan nan 13 9 6 2 4 5 6 7 8 11 12 13 13 11 8 7 7 9 7 2 2 1 2 2 3 4 5 3 3 3 3 3 5 4 3 4 4 5 5 6 6 7 7 6 7 8 9 9 10 10 9 8 8 6 5 5 5 6 7 7 8 7 7 7 6 7 6 7 7 7 7 8 9 9 8 7 6 5 4 5
nan nan nan nan nan nan nan nan nan nan nan nan nan nan nan nan nan nan 11 8 5 4 4 4 6 8 10 11 14 15 13 11 8 6 8 7 6 4 1 2 3 3 6 5 3 3 3 3 3 4 4 2 2 3 3 4 5 5 6 6 6 7 9 10 10 9 9 9 8 6 5 4 4 4 6 7 8 8 7 8 8 7 7 8 8 10 10 10 9 10 10 9 9 7 5 4 3
nan nan nan nan nan nan nan nan nan nan nan nan nan nan nan nan nan nan 14 11 8 5 4 4 5 7 9 10 13 14 14 12 7 7 8 6 4 4 1 3 4 4 5 5 4 4 4 3 3 3 4 2 3 3 4 4 5 5 5 5 6 6 8 8 8 9 8 8 7 5 4 4 3 4 6 7 8 8 8 8 8 7 8 9 10 11 11 11 11 12 11 11 12 12 12 9 6
nan nan nan nan nan nan nan nan nan nan nan nan nan nan nan nan nan nan 16 13 9 6 4 5 5 6 8 10 12 14 14 12 8 8 7 7 6 4 2 2 3 3 4 3 3 5 5 4 4 4 3 2 3 3 4 4 5 4 5 4 4 5 6 6 7 7 7 7 6 5 3 3 3 4 6 8 9 8 8 8 7 7 8 10 11 12 12 11 12 13 12 13 14 15 13 15 12
nan nan nan nan nan nan nan nan nan nan nan nan nan nan nan nan nan nan nan nan 9 6 5 6 6 6 6 9 11 12 9 5 7 6 7 6 4 4 3 3 1 2 3 3 3 3 4 5 5 4 3 3 3 3 5 5 5 4 4 3 4 5 5 5 5 6 6 7 6 5 4 3 3 5 7 9 9 9 8 8 7 7 8 9 10 12 12 12 13 13 13 14 15 14 14 14 13
nan nan nan nan nan nan nan nan nan nan nan nan nan nan nan nan nan nan nan nan 13 11 10 7 5 5 5 7 9 9 6 6 7 7 7 4 5 4 2 2 2 2 2 3 4 3 4 6 7 5 4 3 3 2 4 4 4 3 2 3 3 5 4 5 6 6 7 6 5 4 3 2 3 5 7 9 9 9 9 8 7 7 8 9 10 11 12 12 12 12 13 13 13 13 13 13 15
nan nan nan nan nan nan nan nan nan nan nan nan nan nan nan nan nan nan nan nan 14 13 12 10 7 5 4 5 6 7 7 4 6 8 8 5 4 2 2 2 3 3 4 4 4 4 4 6 6 5 4 3 3 3 3 3 2 1 2 4 3 6 6 6 7 8 7 6 4 2 1 1 3 5 7 9 9 9 10 9 6 6 7 8 9 9 10 11 10 10 11 11 12 13 14 13 15
nan nan nan nan nan nan nan nan nan nan nan nan nan nan nan nan nan nan nan nan nan 16 14 12 9 7 6 6 5 4 5 5 5 5 5 5 4 2 1 3 5 4 4 4 4 4 7 4 5 4 5 4 4 3 2 3 2 2 3 4 5 6 9 9 9 8 6 6 5 2 1 0 2 4 6 9 9 10 10 8 6 5 6 6 8 9 9 9 10 9 8 9 11 10 11 12 14
nan nan nan nan nan nan nan nan nan nan nan nan nan nan nan nan nan nan nan nan nan nan 17 12 8 7 6 4 2 2 2 3 4 5 6 5 2 2 3 2 2 4 4 4 4 4 6 6 5 5 6 6 5 3 2 2 3 2 3 5 5 6 7 7 6 5 5 4 2 2 2 1 2 3 5 7 10 10 10 9 7 5 5 5 7 8 7 8 10 10 9 10 10 10 9 11 13
nan nan nan nan nan nan nan nan nan nan nan nan nan nan nan nan nan nan nan 28 23 23 19 15 11 8 4 3 2 2 2 1 3 5 4 4 3 2 2 1 1 3 5 6 5 5 5 7 6 5 6 7 6 5 4 3 3 3 1 3 4 4 4 5 6 6 6 5 4 2 3 3 2 4 6 8 9 11 11 10 8 5 4 5 6 7 7 9 10 10 9 10 9 9 10 11 13
nan nan nan nan nan nan nan nan nan nan nan nan nan nan nan nan nan nan nan nan 26 24 21 16 12 7 5 4 3 3 3 2 2 3 5 6 5 3 3 2 1 3 5 6 5 5 4 6 6 6 8 8 8 7 5 4 3 3 2 2 4 3 2 4 5 5 6 7 5 4 4 3 3 3 4 6 9 11 11 11 9 7 5 5 5 6 6 7 7 8 9 9 8 9 10 11 13
nan nan nan nan nan nan nan nan nan nan nan nan nan nan nan nan nan nan nan nan nan 24 20 16 13 9 6 5 4 2 3 4 2 2 4 6 6 5 1 0 1 3 5 4 5 5 5 6 8 7 8 8 8 6 5 4 4 3 3 3 4 5 5 6 8 7 7 7 6 6 4 3 3 3 4 6 8 10 11 11 11 9 7 5 5 5 6 7 9 9 9 9 8 8 8 10 11
nan nan nan nan nan nan nan nan nan nan nan nan nan nan nan nan nan nan nan nan nan nan nan 16 12 10 8 8 6 4 4 4 3 1 2 4 6 5 2 1 3 2 3 5 6 7 6 7 7 6 6 9 8 5 5 4 3 5 4 3 3 4 5 6 8 8 9 9 7 6 5 3 3 3 4 5 6 8 10 12 12 12 10 7 5 5 5 6 8 9 8 7 7 7 7 10 13
nan nan nan nan nan nan nan nan nan nan nan nan nan nan nan nan nan nan nan nan nan nan nan nan 16 13 9 9 7 7 6 4 3 2 0 1 4 5 3 1 1 1 4 4 5 5 5 5 4 4 4 8 7 5 4 4 4 5 5 3 2 2 3 5 7 8 10 9 8 6 6 5 4 4 3 5 6 8 9 11 12 13 12 8 6 5 5 6 8 9 7 7 7 6 7 10 14
nan nan nan nan nan nan nan nan nan nan nan nan nan nan nan nan nan nan nan nan nan nan nan nan 18 14 12 12 11 8 6 5 4 3 2 2 3 4 3 2 1 1 2 2 3 4 5 5 5 3 4 4 5 5 4 3 4 4 4 3 2 2 2 5 5 6 8 9 9 9 8 7 6 5 5 4 5 8 8 9 11 13 13 10 8 6 5 6 6 8 8 7 6 6 7 11 14
nan nan nan nan nan nan nan nan nan nan nan nan nan nan nan nan nan nan nan nan nan nan nan nan nan 17 14 13 10 10 8 6 6 5 4 4 2 1 1 1 1 1 1 1 1 3 4 5 5 5 4 5 6 6 4 3 4 4 4 4 4 4 2 3 4 6 8 9 10 10 11 9 9 8 7 5 5 7 6 7 9 11 12 12 10 8 6 6 6 7 8 8 7 7 9 12 14
nan nan nan nan nan nan nan nan nan nan nan nan nan nan nan nan nan nan nan nan nan nan nan nan nan nan 18 15 13 12 10 8 7 5 5 5 3 3 2 2 1 1 1 1 1 3 5 7 6 5 5 6 6 6 5 4 3 5 5 5 5 5 3 3 5 6 7 9 10 10 11 11 11 9 9 7 6 7 6 7 8 10 11 12 12 10 7 6 7 7 9 8 8 7 9 13 14
nan nan nan nan nan nan nan nan nan nan nan nan nan nan nan nan nan nan nan nan nan nan nan nan nan nan 20 17 15 12 11 9 9 8 6 4 3 3 5 4 4 3 1 2 3 3 6 7 7 7 7 6 6 6 6 4 5 5 4 4 5 5 5 5 5 6 7 8 9 9 10 11 11 11 10 10 9 8 8 8 8 10 11 12 13 11 8 7 8 8 9 9 7 8 9 12 14
nan nan nan nan nan nan nan nan nan nan nan nan nan nan nan nan nan nan nan nan nan nan nan nan nan nan nan 20 17 15 13 10 9 7 6 4 4 5 8 8 6 5 3 3 3 4 5 7 8 8 8 8 7 6 6 6 6 8 4 2 2 4 6 6 6 7 8 8 9 9 10 10 11 12 12 12 12 11 11 9 9 9 11 12 13 13 10 8 9 9 10 10 9 9 10 13 14
nan nan nan nan nan nan nan nan nan nan nan nan nan nan nan nan nan nan nan nan nan nan nan nan nan nan nan 23 20 16 13 11 10 8 7 5 5 6 7 7 7 6 5 3 3 4 4 6 7 8 8 9 8 7 7 7 7 8 6 5 4 4 4 5 5 6 8 10 10 10 10 10 10 11 12 13 13 13 12 12 10 9 11 12 14 14 12 9 8 10 11 11 10 10 11 13 14
nan nan nan nan nan nan nan nan nan nan nan nan nan nan nan nan nan nan nan nan nan nan nan nan nan nan nan 25 21 18 14 12 8 6 7 7 7 6 6 7 6 5 3 2 3 4 4 5 6 7 8 7 8 8 8 9 10 9 8 7 7 6 6 6 7 9 11 12 12 12 12 11 11 12 12 13 13 14 13 13 12 11 10 11 13 15 14 11 9 9 11 11 11 11 12 13 14
nan nan nan nan nan nan nan nan nan nan nan nan nan nan nan nan nan nan nan nan nan nan nan nan nan nan nan nan 20 17 15 15 12 9 9 7 6 6 6 6 6 5 5 4 5 6 6 4 5 5 5 6 8 9 10 11 11 11 11 10 10 10 9 9 10 12 14 13 13 14 13 13 14 14 13 13 13 13 13 14 14 13 11 11 13 14 15 13 10 8 9 10 11 12 12 13 14
nan nan nan nan nan nan nan nan nan nan nan nan nan nan nan nan nan nan nan nan nan nan nan nan nan nan nan nan nan 20 18 16 13 11 9 6 5 7 8 7 7 8 7 7 8 7 5 5 6 5 5 7 9 10 11 11 11 11 11 12 11 11 11 9 10 14 14 14 15 15 16 15 16 16 15 15 14 13 13 14 15 14 13 12 13 14 16 15 12 9 9 10 11 14 13 14 14
nan nan nan nan nan nan nan nan nan nan nan nan nan nan nan nan nan nan nan nan nan nan nan nan nan nan nan nan nan 22 19 17 14 13 9 5 3 5 7 7 5 7 9 10 11 7 6 9 7 6 8 9 10 10 11 11 12 12 12 12 13 13 12 12 12 15 15 15 16 17 17 17 18 17 17 17 16 14 14 14 14 14 13 13 13 15 16 17 14 11 9 9 10 12 13 14 14
nan nan nan nan nan nan nan nan nan nan nan nan nan nan nan nan nan nan nan nan nan nan nan nan nan nan nan nan nan nan 21 17 15 13 9 7 5 3 4 6 8 9 9 10 10 10 10 9 9 9 10 10 11 12 12 13 14 13 13 13 13 13 14 15 15 16 16 16 17 18 19 19 18 18 18 18 18 17 16 15 15 15 15 15 15 15 16 17 16 13 10 10 10 11 13 14 15
Wind_Direction
4 17 19 26 24 69 40 70 92 72 80 104 125 156 nan 146 160 83 189 64 49 181 130 34 14 nan 114 144 161 172 170 160 141 130 140 125 32 23 27 355 1 12 14 26 12 9 13 36 342 349 360 345 342 330 315 320 327 325 322 330 329 319 311 315 321 316 322 333 336 331 325 313 310 340 69 83 85 73 64 87 80 88 318 238 215 204 197 215 251 70 174 156 226 295 278 280 281
13 17 22 28 34 23 76 62 105 86 72 136 137 127 217 210 84 165 157 132 157 81 82 33 32 123 92 144 123 115 173 164 161 165 175 239 357 17 9 360 3 0 6 11 18 10 12 2 42 359 2 348 335 321 316 327 333 328 329 329 318 313 313 316 320 327 338 344 344 345 334 323 330 49 82 86 91 105 108 97 106 93 122 186 214 151 121 125 157 169 173 220 221 217 235 225 210
28 30 31 44 52 70 118 89 105 133 151 103 149 186 82 176 195 164 174 155 139 75 68 nan 42 87 71 80 157 140 154 160 206 235 224 336 2 36 4 4 358 342 334 12 21 17 16 4 72 45 15 349 337 323 323 332 337 332 330 322 313 314 319 324 334 342 352 357 5 7 17 32 73 88 105 112 119 115 121 116 95 82 60 57 65 68 65 104 146 165 187 217 231 237 283 273 257
41 56 50 46 78 75 91 85 98 145 nan 163 nan 180 185 180 202 190 173 166 120 77 63 35 76 138 104 114 164 184 172 164 218 299 317 16 59 13 360 357 347 343 345 41 30 30 30 39 57 68 10 349 333 325 328 339 338 332 326 316 316 320 329 339 347 354 0 13 32 47 65 78 90 107 118 129 132 121 109 91 89 91 83 83 83 92 95 92 127 178 188 203 218 234 223 246 261
55 64 73 73 108 91 104 112 124 106 133 147 143 185 201 194 212 184 191 136 72 79 59 73 127 154 192 167 140 136 167 222 309 328 339 344 330 352 350 349 357 345 351 9 32 31 17 14 45 58 10 340 326 324 335 343 338 331 324 319 327 335 344 354 359 6 13 33 53 72 85 104 120 121 119 116 120 119 116 112 102 97 92 94 78 89 95 114 159 186 198 208 228 228 228 247 262
76 76 75 90 100 134 102 80 73 150 nan 142 163 185 196 204 210 212 237 46 53 63 66 67 98 51 145 158 138 147 66 74 5 342 338 325 334 339 341 1 3 357 3 23 44 47 19 18 27 35 359 329 319 333 345 345 340 334 327 329 336 349 356 6 12 17 29 39 60 77 96 113 117 111 109 118 128 127 123 128 119 111 109 90 68 59 84 136 173 206 214 225 227 247 272 269 254
76 76 74 84 90 83 89 110 167 168 nan 151 184 206 202 217 228 266 293 310 47 39 68 82 142 347 25 140 209 170 155 266 15 337 340 332 333 340 349 12 16 0 8 30 47 44 356 17 14 2 326 320 328 345 350 347 344 340 332 336 348 356 8 18 24 31 36 47 60 71 81 86 86 92 108 132 148 151 156 153 142 139 138 94 52 48 114 173 191 208 231 230 234 245 253 255 260
106 93 100 110 101 63 74 84 152 129 246 170 195 205 222 238 261 295 312 12 351 43 39 27 49 156 208 73 162 166 161 42 313 336 327 338 339 344 3 12 20 7 7 18 33 35 350 14 354 326 320 335 343 350 351 352 348 341 340 342 354 7 20 31 33 38 40 48 55 61 67 70 72 78 95 129 152 158 162 167 171 169 167 130 95 123 217 211 226 232 244 255 249 244 250 267 281
92 109 117 107 93 65 86 109 nan nan 262 244 245 205 208 254 278 287 315 249 337 23 8 6 11 63 285 266 226 194 106 328 324 330 339 342 344 353 20 11 17 20 3 2 1 352 4 4 344 342 352 350 352 352 353 353 350 348 347 356 6 18 32 38 39 38 39 46 50 53 60 66 70 75 86 107 136 142 147 159 159 152 156 153 143 163 192 227 235 268 271 264 271 272 265 269 277
104 111 125 121 130 100 91 260 39 nan 235 236 231 261 273 268 273 312 264 302 310 338 332 335 27 226 316 265 279 58 48 349 334 338 348 350 347 2 12 8 5 3 3 353 350 354 7 355 357 1 358 357 350 351 356 356 354 352 0 8 17 27 39 42 40 37 38 44 46 48 58 65 71 79 88 107 119 127 137 144 144 144 148 151 152 153 184 217 283 310 324 318 304 284 299 294 279
120 115 123 112 90 120 nan nan nan 284 nan 256 252 260 260 254 266 263 237 245 295 314 300 322 352 294 348 259 227 188 348 348 353 351 355 355 355 3 13 7 4 2 359 349 351 351 358 11 358 2 356 349 345 352 358 359 3 6 13 23 25 38 45 45 40 39 41 45 47 48 61 68 74 84 97 116 124 129 132 139 141 131 129 128 136 119 119 153 334 35 42 62 72 45 62 64 67
127 126 126 126 152 157 196 186 nan nan nan 251 272 283 257 264 260 262 258 277 313 301 312 0 269 326 314 306 267 312 349 356 359 359 2 2 2 5 10 13 5 6 358 352 348 352 1 8 23 5 352 341 342 353 8 11 16 28 37 33 36 43 49 47 46 45 47 52 55 57 71 77 81 89 103 119 128 129 135 134 134 128 110 105 111 104 96 116 111 94 88 99 100 82 90 94 79
130 143 130 133 171 162 189 150 nan nan nan 256 265 274 265 286 266 252 258 249 296 310 296 352 255 78 32 313 288 319 352 350 348 4 6 10 4 10 12 13 8 3 1 353 353 353 354 14 27 29 355 338 343 359 20 32 39 48 53 47 45 48 51 51 52 54 58 64 68 72 79 86 89 96 108 119 126 128 128 132 129 122 108 106 109 103 96 98 108 102 87 79 71 71 62 54 55
123 151 148 147 177 161 158 199 nan nan nan nan 248 276 279 278 256 244 256 267 274 257 260 256 243 149 234 249 336 343 345 336 341 359 13 9 7 6 9 10 8 1 2 1 355 356 6 24 17 24 354 4 1 24 43 56 62 64 62 58 54 54 55 58 61 65 71 79 81 85 89 92 96 104 113 120 120 122 127 121 122 118 108 112 113 110 105 100 97 89 79 68 64 60 55 49 49
129 160 146 146 157 161 216 163 nan nan nan nan 254 271 275 236 243 246 241 250 246 232 250 233 217 82 281 39 9 1 340 326 338 355 5 8 360 2 5 10 7 1 6 6 3 4 12 33 19 9 17 19 11 67 85 83 67 71 68 65 61 60 62 65 70 77 83 88 92 94 97 97 103 109 112 116 115 117 117 103 123 116 116 115 111 109 103 100 89 83 74 74 64 60 56 52 46
146 157 155 145 154 160 238 191 nan nan nan 233 262 258 265 255 230 246 238 192 245 250 268 247 199 183 232 101 315 335 335 332 336 346 4 2 354 1 5 5 11 5 9 13 16 21 22 34 39 31 31 29 40 64 81 82 77 71 71 68 68 70 70 72 78 85 91 93 95 100 99 97 93 100 102 102 116 111 119 124 129 120 121 121 115 105 98 93 88 79 83 68 65 66 65 51 38
164 162 152 145 150 162 nan 196 nan nan nan 246 266 273 264 262 251 224 232 221 248 265 259 234 236 209 186 206 298 303 328 332 332 343 358 5 357 5 10 11 15 12 18 22 29 41 24 31 31 54 42 39 49 62 83 86 82 69 76 74 76 78 77 78 85 89 91 93 93 96 98 100 106 108 98 107 101 108 118 118 129 127 123 120 111 101 90 83 86 82 85 84 62 65 60 65 35
175 166 160 152 165 173 219 214 209 213 213 236 257 260 226 251 267 243 238 231 214 251 244 241 225 207 204 260 294 304 318 334 342 344 359 7 6 3 12 12 15 12 16 25 37 48 39 40 36 55 70 49 64 86 95 94 90 77 82 86 90 88 83 83 88 94 92 98 93 98 103 107 109 113 114 106 104 103 101 120 112 113 121 114 108 97 92 84 75 73 64 81 83 72 82 58 42
178 185 173 170 185 204 199 219 211 197 216 209 221 244 197 218 259 256 207 249 251 258 246 261 252 243 251 286 301 315 321 329 342 346 355 3 6 358 10 10 14 10 17 23 49 49 66 54 49 59 67 63 64 84 98 95 83 90 87 94 102 92 91 89 96 96 99 102 100 103 105 108 114 115 117 123 119 123 115 112 105 99 104 105 90 81 76 80 72 66 56 48 58 50 78 94 71
182 182 186 179 194 202 201 206 210 208 203 214 221 241 218 221 212 252 149 243 254 247 251 273 280 283 288 301 314 316 326 330 336 342 353 357 360 355 6 6 10 15 18 26 31 77 63 67 53 59 64 61 80 93 98 97 94 95 98 100 106 103 100 101 101 102 104 102 104 106 107 114 109 111 117 103 97 95 87 74 82 80 75 70 75 54 30 33 41 38 54 56 55 47 42 49 87
217 192 186 195 202 191 211 215 221 219 205 207 213 235 226 235 205 201 155 191 196 197 262 291 313 309 308 314 319 321 330 333 335 338 345 350 353 352 0 5 11 17 30 30 35 69 55 55 57 62 68 73 78 95 96 98 101 102 103 104 107 109 108 108 108 105 107 103 102 106 107 109 106 108 104 103 108 107 105 92 72 78 85 77 76 70 58 44 43 44 37 49 37 40 39 51 35
209 203 193 200 210 203 227 206 209 212 204 202 218 204 208 240 208 159 153 170 197 202 219 247 286 317 320 327 329 328 333 340 338 338 343 347 352 348 348 360 11 15 37 45 37 39 42 60 55 72 72 78 81 92 95 102 106 108 108 109 112 114 115 115 115 111 110 104 105 105 108 103 102 103 103 103 95 96 94 96 101 97 83 77 78 72 73 63 62 41 49 10 46 39 33 37 34
198 213 190 189 188 182 205 198 208 199 192 195 196 209 206 248 195 179 152 133 197 200 213 239 269 319 323 326 331 337 339 345 347 344 343 345 349 351 349 359 8 16 31 55 47 45 32 53 61 68 72 85 79 94 102 110 111 113 117 118 116 118 122 119 116 115 113 108 107 110 102 103 101 100 98 97 98 94 94 93 92 92 88 83 74 70 60 55 61 57 57 23 17 32 18 17 32
194 203 220 202 189 170 184 175 177 178 185 187 193 186 149 188 128 195 151 132 185 207 209 243 268 302 314 330 343 344 343 349 352 348 343 345 347 351 354 0 6 13 44 42 50 43 29 36 61 67 79 86 95 100 106 115 118 118 122 126 122 128 124 120 118 118 120 111 108 108 112 110 107 103 100 95 92 92 91 94 91 89 85 79 75 73 59 56 50 61 57 59 36 36 23 35 21
201 201 193 192 191 184 177 163 164 174 178 184 177 155 140 139 142 175 152 122 229 214 239 263 284 307 321 333 347 346 341 353 358 354 342 339 343 350 4 8 357 8 43 41 53 38 24 41 54 72 81 78 100 104 110 120 123 123 129 128 126 132 125 126 126 124 119 118 111 109 109 110 107 104 101 96 95 94 92 90 88 85 81 78 68 56 55 54 47 52 54 59 28 42 40 21 14
192 195 203 199 187 176 166 161 162 169 196 200 173 143 149 138 142 127 151 139 221 232 268 280 294 316 335 341 348 348 346 355 355 359 356 346 346 354 15 9 357 24 47 37 36 36 33 43 59 75 84 95 102 106 120 123 127 126 130 130 131 132 128 132 131 122 123 123 119 110 110 113 110 107 101 105 98 95 90 86 83 76 77 64 62 48 38 42 39 32 37 53 46 32 30 2 50
219 211 187 173 168 159 160 154 165 179 181 193 152 154 154 162 144 155 126 145 279 289 290 296 314 335 346 346 348 352 351 351 352 346 350 350 351 6 20 18 11 27 50 50 42 35 44 68 85 90 96 102 113 113 125 127 128 128 130 131 133 131 132 136 131 125 125 125 127 123 115 114 115 109 111 104 101 96 89 85 83 80 63 56 49 33 9 27 25 8 353 36 31 30 26 357 34
210 216 204 186 175 158 157 nan nan nan 183 175 116 127 nan nan 136 145 221 313 319 335 323 320 328 340 353 353 348 346 355 347 338 340 347 355 357 15 25 34 17 22 58 62 61 42 30 71 94 95 101 114 116 116 131 128 127 129 130 132 131 132 135 132 131 129 129 131 136 128 120 117 113 118 116 109 104 98 92 78 71 69 63 52 45 34 31 11 15 341 338 346 2 23 11 350 331
203 nan nan nan nan nan nan nan nan nan nan nan nan nan nan nan 73 82 187 300 334 352 342 339 339 342 352 359 352 348 356 349 341 342 348 350 359 42 32 28 12 25 102 61 52 39 38 66 118 105 105 115 117 118 133 134 133 133 132 131 134 135 135 132 131 132 137 137 141 130 127 121 120 115 109 103 101 93 84 75 67 57 48 44 35 21 30 29 13 13 348 356 359 3 347 319 327
nan nan nan nan nan nan nan nan nan nan nan nan nan nan nan nan 310 239 269 314 341 358 356 353 348 345 349 359 1 356 360 357 352 350 348 347 11 51 47 27 15 35 128 100 55 43 62 118 140 139 118 117 119 129 137 140 138 139 140 139 139 136 134 136 136 141 142 143 141 135 128 125 121 117 110 103 100 87 73 65 61 56 48 40 34 28 27 25 27 36 13 26 343 14 323 306 304
nan nan nan nan nan nan nan nan nan nan nan nan nan nan nan nan 278 252 279 326 352 9 10 8 3 354 350 358 1 5 8 9 1 356 355 355 20 74 59 43 32 44 169 111 61 47 54 101 147 149 133 124 131 130 137 141 144 143 146 146 145 141 144 144 143 144 145 144 142 140 129 127 120 117 113 109 95 88 72 58 52 51 39 44 47 21 47 24 26 25 20 52 0 334 325 298 289
nan nan nan nan nan nan nan nan nan nan nan nan nan nan nan nan nan 252 264 301 11 31 27 24 20 8 359 360 5 8 14 11 10 3 359 4 24 75 58 56 57 86 143 123 89 69 59 87 124 132 130 113 127 137 141 143 145 146 149 151 149 147 151 151 150 148 146 143 138 138 128 123 119 114 108 98 91 78 71 63 49 46 37 52 51 49 52 36 19 34 26 31 16 4 323 317 314
nan nan nan nan nan nan nan nan nan nan nan nan nan nan nan nan nan 248 242 237 25 65 55 45 29 18 8 8 9 9 8 12 19 13 5 9 24 93 75 70 106 125 153 128 96 78 83 92 124 111 92 104 119 119 131 143 151 151 147 151 150 153 154 156 155 150 148 142 139 135 136 123 117 107 93 83 82 76 74 68 54 40 43 52 57 55 54 46 35 33 33 29 26 16 4 333 316
nan nan nan nan nan nan nan nan nan nan nan nan nan nan nan nan nan 233 226 216 226 108 81 69 54 38 23 18 17 11 12 11 16 17 14 9 337 7 115 111 106 123 151 126 110 92 86 110 130 131 150 97 127 137 140 149 152 151 155 156 154 157 151 157 157 153 148 145 143 140 144 128 114 89 76 70 72 79 79 70 65 39 47 52 57 61 59 51 35 31 25 16 15 16 5 343 323
nan nan nan nan nan nan nan nan nan nan nan nan nan nan nan nan nan nan 218 211 198 155 134 100 84 59 36 28 26 19 17 16 15 17 10 4 348 342 144 125 124 123 152 114 114 104 108 114 140 129 144 129 126 141 153 151 156 157 160 156 161 160 164 161 159 157 151 147 140 142 145 130 109 74 64 58 64 69 66 59 58 43 50 53 60 61 52 44 40 33 30 22 20 25 24 355 322
nan nan nan nan nan nan nan nan nan nan nan nan nan nan nan nan nan nan 218 207 197 185 169 140 99 81 60 45 33 27 25 23 12 9 14 6 354 335 244 169 150 138 148 145 103 76 75 78 106 129 132 152 181 173 179 167 171 169 164 166 163 164 159 163 159 154 154 150 148 149 149 130 107 68 52 53 56 61 60 52 51 42 47 54 56 60 57 48 43 45 43 43 38 40 34 31 15
nan nan nan nan nan nan nan nan nan nan nan nan nan nan nan nan nan nan 217 211 200 189 169 138 117 96 79 67 50 36 28 24 4 2 10 11 9 341 304 213 156 128 135 142 108 68 63 72 77 67 118 133 170 172 175 174 177 176 170 158 162 166 160 162 160 154 151 154 154 157 157 134 87 56 48 47 49 46 50 53 49 43 50 52 55 60 60 58 56 62 58 53 51 47 38 36 32
nan nan nan nan nan nan nan nan nan nan nan nan nan nan nan nan nan nan nan nan 189 184 154 130 118 106 105 79 70 54 42 37 359 356 13 12 21 357 307 231 176 94 137 131 102 81 76 73 81 93 124 135 144 168 190 190 191 188 191 174 173 177 180 169 163 160 157 160 171 170 158 130 78 54 46 43 41 35 39 47 45 43 49 58 56 62 65 64 65 66 63 55 53 52 41 46 32
nan nan nan nan nan nan nan nan nan nan nan nan nan nan nan nan nan nan nan nan 191 174 159 153 138 126 129 111 94 84 67 41 13 4 1 12 7 354 296 248 199 140 157 133 134 110 90 94 101 101 120 130 136 171 208 207 206 192 185 194 171 178 178 171 166 175 175 165 181 183 164 128 73 53 43 38 34 31 39 46 44 42 51 58 56 63 64 66 73 70 63 63 53 46 41 35 37
nan nan nan nan nan nan nan nan nan nan nan nan nan nan nan nan nan nan nan nan 192 177 165 166 167 147 132 136 139 125 101 85 33 12 4 357 351 328 260 231 215 190 183 171 148 103 125 118 111 103 120 123 161 181 206 216 223 218 179 189 178 162 181 186 182 190 187 173 175 195 181 103 51 51 37 34 29 28 31 39 44 49 48 52 56 64 62 65 67 67 62 52 52 44 33 25 35
nan nan nan nan nan nan nan nan nan nan nan nan nan nan nan nan nan nan nan nan nan 183 183 178 175 172 172 181 167 144 118 112 100 51 22 358 347 341 275 219 213 200 187 180 164 153 159 119 123 122 141 133 158 178 187 205 216 209 207 197 194 179 183 191 196 193 190 192 179 192 197 349 29 43 33 29 32 26 27 32 40 46 52 46 56 61 59 55 52 57 54 48 45 48 36 25 28
nan nan nan nan nan nan nan nan nan nan nan nan nan nan nan nan nan nan nan nan nan nan 196 188 190 189 193 170 146 194 143 124 108 68 49 23 352 266 256 244 224 210 204 193 189 177 165 166 157 154 158 153 153 134 106 153 180 206 224 218 210 200 192 194 194 196 200 205 173 190 248 285 347 19 22 23 29 31 26 28 32 40 44 48 51 59 54 40 40 46 38 45 39 37 46 34 14
nan nan nan nan nan nan nan nan nan nan nan nan nan nan nan nan nan nan nan 215 199 204 200 197 202 194 175 157 169 235 265 161 114 103 82 59 31 343 322 296 263 233 225 212 196 186 171 174 172 164 162 159 148 132 89 132 149 165 191 204 204 209 202 194 198 199 196 206 204 215 246 280 327 7 11 12 26 30 30 26 22 26 43 48 45 46 38 34 24 28 31 34 36 24 27 29 15
nan nan nan nan nan nan nan nan nan nan nan nan nan nan nan nan nan nan nan nan 204 207 208 202 202 192 161 151 172 221 256 264 196 102 81 66 42 24 19 0 247 221 232 224 207 198 176 171 177 167 166 158 151 141 100 121 140 163 163 157 184 190 195 208 225 216 210 213 224 239 253 261 307 348 9 7 21 27 29 26 21 17 25 35 38 38 36 23 15 12 20 22 21 20 16 21 16
nan nan nan nan nan nan nan nan nan nan nan nan nan nan nan nan nan nan nan nan nan 205 207 207 195 194 171 153 170 199 251 269 260 172 94 79 67 55 41 311 241 226 225 225 217 205 191 179 175 169 161 157 154 137 137 125 152 178 172 164 169 179 186 206 223 230 228 231 234 244 254 256 277 328 4 11 13 23 24 26 21 16 12 14 18 32 23 8 9 8 9 11 9 7 15 10 6
nan nan nan nan nan nan nan nan nan nan nan nan nan nan nan nan nan nan nan nan nan nan nan 197 193 194 184 167 166 174 224 248 267 299 104 90 89 91 85 227 241 224 208 211 212 205 194 187 172 165 154 164 164 152 159 159 164 187 188 178 159 184 196 210 222 238 242 246 247 257 260 253 265 301 337 1 7 17 22 23 23 18 13 10 9 27 11 357 356 1 6 9 358 2 354 2 359
nan nan nan nan nan nan nan nan nan nan nan nan nan nan nan nan nan nan nan nan nan nan nan nan 197 201 189 175 173 183 206 224 238 265 244 105 111 118 151 213 299 246 203 215 204 200 198 194 188 173 169 179 182 188 191 158 189 197 196 187 172 182 209 223 228 237 245 253 254 261 264 262 259 273 300 321 0 11 16 19 21 16 14 4 358 7 6 352 346 349 353 351 350 353 346 353 356
nan nan nan nan nan nan nan nan nan nan nan nan nan nan nan nan nan nan nan nan nan nan nan nan 207 208 199 191 187 185 189 201 213 217 220 242 189 139 143 115 291 283 209 220 208 214 208 206 214 222 218 218 215 222 238 205 205 213 197 190 182 183 219 227 246 247 253 262 264 264 263 263 266 269 273 295 338 4 3 11 17 17 12 3 353 349 352 345 335 331 332 330 338 346 347 350 354
nan nan nan nan nan nan nan nan nan nan nan nan nan nan nan nan nan nan nan nan nan nan nan nan nan 209 206 201 196 197 193 195 208 212 215 231 231 210 117 119 280 307 221 298 263 245 238 232 245 252 255 265 246 251 260 247 226 217 202 190 187 193 191 228 244 248 253 255 259 264 268 268 270 274 281 295 325 354 347 355 4 8 7 0 353 347 344 341 330 322 325 329 336 342 345 350 353
nan nan nan nan nan nan nan nan nan nan nan nan nan nan nan nan nan nan nan nan nan nan nan nan nan nan 211 204 202 203 201 197 200 210 208 215 215 223 244 215 213 223 326 312 292 239 241 241 258 261 256 256 248 245 253 253 238 220 207 198 197 201 195 219 229 243 256 251 255 263 269 271 274 283 289 300 311 329 336 340 348 357 359 353 350 349 340 333 329 321 321 327 336 336 346 351 353
nan nan nan nan nan nan nan nan nan nan nan nan nan nan nan nan nan nan nan nan nan nan nan nan nan nan 205 204 211 213 213 203 206 210 208 206 195 221 224 220 206 199 265 272 235 239 249 250 261 268 258 258 256 254 244 259 240 239 216 203 211 208 212 223 230 239 256 265 263 267 267 269 273 278 289 294 306 313 322 325 336 347 350 347 345 347 341 332 327 323 316 320 326 328 346 349 349
nan nan nan nan nan nan nan nan nan nan nan nan nan nan nan nan nan nan nan nan nan nan nan nan nan nan nan 207 215 220 218 215 220 223 218 211 213 219 216 213 203 199 229 232 272 255 259 261 270 278 280 275 271 267 257 255 246 241 250 247 236 236 227 228 229 244 256 268 271 273 275 275 271 275 283 291 302 308 312 319 324 337 343 343 341 344 341 328 323 323 316 315 326 329 340 351 348
nan nan nan nan nan nan nan nan nan nan nan nan nan nan nan nan nan nan nan nan nan nan nan nan nan nan nan 213 220 226 223 224 230 230 229 242 234 231 228 232 218 212 214 220 262 277 286 266 264 272 271 267 277 278 274 266 262 261 274 281 272 262 265 267 257 280 281 272 274 277 278 282 280 277 279 286 297 304 305 310 312 321 330 335 338 338 337 331 319 314 311 314 324 334 335 347 347
nan nan nan nan nan nan nan nan nan nan nan nan nan nan nan nan nan nan nan nan nan nan nan nan nan nan nan 215 219 224 224 229 239 241 247 256 259 266 250 242 249 243 239 239 277 272 258 254 262 267 266 280 280 279 281 270 274 277 274 283 290 286 273 279 274 275 276 276 279 277 280 282 286 282 279 280 291 301 302 306 302 305 316 328 334 334 333 330 319 310 319 317 322 327 332 336 344
nan nan nan nan nan nan nan nan nan nan nan nan nan nan nan nan nan nan nan nan nan nan nan nan nan nan nan nan 222 222 220 222 222 227 241 259 279 291 293 304 312 295 264 261 267 261 244 239 243 266 287 300 290 267 268 261 272 264 269 286 299 293 285 286 283 279 278 282 288 284 286 284 282 285 284 284 288 295 298 298 298 300 302 314 325 332 331 323 315 307 312 313 317 321 326 332 338
nan nan nan nan nan nan nan nan nan nan nan nan nan nan nan nan nan nan nan nan nan nan nan nan nan nan nan nan nan 224 226 224 221 228 244 274 316 337 338 337 331 311 291 268 268 250 265 255 253 260 274 268 271 272 271 278 286 282 282 286 296 300 304 310 300 290 288 292 290 286 286 288 287 285 287 292 290 294 296 296 295 298 301 305 315 323 328 324 311 303 304 310 317 321 324 330 335
nan nan nan nan nan nan nan nan nan nan nan nan nan nan nan nan nan nan nan nan nan nan nan nan nan nan nan nan nan 222 231 230 224 229 244 271 307 338 342 335 313 288 270 258 255 264 259 252 257 275 281 290 299 300 291 282 280 285 291 298 303 306 316 307 308 301 300 296 292 290 286 283 282 286 288 292 294 295 296 295 294 294 298 296 302 312 318 320 312 303 300 304 307 316 322 324 329
nan nan nan nan nan nan nan nan nan nan nan nan nan nan nan nan nan nan nan nan nan nan nan nan nan nan nan nan nan nan 225 231 230 234 244 242 236 250 291 293 278 274 277 282 268 258 263 270 271 277 279 284 303 305 299 292 286 285 299 297 303 300 303 304 310 306 307 302 298 294 291 287 290 289 289 294 297 295 295 296 294 293 294 294 297 304 316 319 311 301 302 293 300 311 317 322 324